Location: Clermont
(50.2608°N, 4.3172°E)
Time: 21:43:18
(UTC+00:00)

Cosmos 192 - Pass Details

Date: 13 August 2020
Orbit: 701 x 713 km, 74.0° (Epoch: 22 September)

Event Time Altitude Azimuth Distance (km) Brightness Sun altitude
Rises 19:58:03 0° 335° (NNW) 3,102 8.8 -8.3°
Reaches altitude 10° 20:00:23 10° 336° (NNW) 2,181 7.9 -8.6°
Maximum altitude 20:05:19 90° 52° (NE) 711 4.4 -9.2°
Drops below altitude 10° 20:10:14 10° 158° (SSE) 2,171 6.3 -9.8°
Enters shadow 20:10:30 - 158° (SSE) 2,281 6.4 -9.9°
